Location: Estes Par
(40.3770°N, 105.5210°W)
Time: 07:45:47
(UTC-06:00)

Envisat - Pass Details

Date: 14 October 2017
Orbit: 764 x 766 km, 98.2° (Epoch: 21 October)

Event Time Altitude Azimuth Distance (km) Brightness Sun altitude
Exits shadow 20:00:13 28° 55° (NE) 1,393 3.9 -19.3°
Drops below altitude 10° 20:03:58 10° 9° (N) 2,305 5.4 -20.0°
Sets 20:06:31 0° 359° (N) 3,235 6.3 -20.5°
